When you browse on this site, cookies collect data to enhance your experience and personalize the content and advertising you see.
Visit our Privacy Policy to learn more. By continuing to use the site, you agree to this use of cookies and data.
  • In Latvia
  • List of Countries
  • For 7 days
  • Water Temperature
  • Satellite Maps
  • Weather Map
  • Weather Widgets
  • user-avatar
    Login

    Hourly Weather Kalgoorlie

    Today, 20 July, Saturday

    Time Temperature Precipitation Wind Pressure Humidity
    00:00 +12°C° 0.1 mm 8 mps 723 mmHg 55%
    01:00 +12°C° 0.1 mm 9 mps 723 mmHg 66%
    02:00 +11°C° 0.1 mm 10 mps 723 mmHg 78%
    03:00 +11°C° 0.4 mm 10 mps 724 mmHg 76%
    04:00 +9°C° 0.4 mm 11 mps 724 mmHg 74%
    05:00 +9°C° 0.4 mm 11 mps 725 mmHg 73%
    06:00 +8°C° 0 mm 10 mps 726 mmHg 73%
    07:00 +8°C° 0 mm 9 mps 727 mmHg 74%
    08:00 +7°C° 0 mm 8 mps 727 mmHg 74%
    09:00 +8°C° 0 mm 9 mps 728 mmHg 65%
    10:00 +11°C° 0 mm 9 mps 729 mmHg 56%
    11:00 +12°C° 0 mm 10 mps 729 mmHg 48%
    12:00 +12°C° 0 mm 9 mps 729 mmHg 44%
    13:00 +13°C° 0 mm 9 mps 729 mmHg 41%
    14:00 +15°C° 0 mm 9 mps 729 mmHg 38%
    15:00 +13°C° 0 mm 8 mps 729 mmHg 40%
    16:00 +13°C° 0 mm 6 mps 729 mmHg 42%
    17:00 +13°C° 0 mm 5 mps 730 mmHg 43%
    18:00 +12°C° 0 mm 5 mps 730 mmHg 48%
    19:00 +10°C° 0 mm 5 mps 731 mmHg 53%
    20:00 +10°C° 0 mm 4 mps 731 mmHg 57%
    21:00 +10°C° 0 mm 4 mps 731 mmHg 61%
    22:00 +9°C° 0 mm 3 mps 732 mmHg 65%
    23:00 +9°C° 0 mm 3 mps 732 mmHg 69%

    Tomorrow, 21 July, Sunday

    Time Temperature Precipitation Wind Pressure Humidity
    00:00 +8°C° 0 mm 3 mps 732 mmHg 71%
    01:00 +8°C° 0 mm 3 mps 731 mmHg 74%
    02:00 +8°C° 0 mm 3 mps 731 mmHg 76%
    03:00 +6°C° 0 mm 4 mps 731 mmHg 78%
    04:00 +6°C° 0 mm 4 mps 731 mmHg 79%
    05:00 +6°C° 0 mm 4 mps 731 mmHg 81%
    06:00 +6°C° 0 mm 5 mps 731 mmHg 80%
    07:00 +7°C° 0 mm 5 mps 731 mmHg 78%
    08:00 +7°C° 0 mm 6 mps 731 mmHg 77%
    09:00 +9°C° 0 mm 7 mps 731 mmHg 70%
    10:00 +11°C° 0 mm 7 mps 731 mmHg 63%
    11:00 +13°C° 0 mm 8 mps 731 mmHg 57%
    12:00 +13°C° 0 mm 8 mps 731 mmHg 58%
    13:00 +13°C° 0 mm 8 mps 730 mmHg 59%
    14:00 +13°C° 0 mm 8 mps 729 mmHg 60%
    15:00 +13°C° 0 mm 8 mps 729 mmHg 59%
    16:00 +13°C° 0 mm 8 mps 729 mmHg 59%
    17:00 +14°C° 0 mm 7 mps 729 mmHg 58%
    18:00 +14°C° 0 mm 7 mps 729 mmHg 59%
    19:00 +14°C° 0 mm 7 mps 730 mmHg 60%
    20:00 +14°C° 0 mm 6 mps 730 mmHg 61%
    21:00 +13°C° 0 mm 6 mps 730 mmHg 67%
    22:00 +11°C° 0 mm 6 mps 730 mmHg 72%
    23:00 +10°C° 0 mm 5 mps 730 mmHg 78%

    Day after tomorrow, 22 July, Monday

    Time Temperature Precipitation Wind Pressure Humidity
    00:00 +10°C° 0 mm 5 mps 729 mmHg 81%
    01:00 +9°C° 0 mm 5 mps 729 mmHg 84%
    02:00 +8°C° 0 mm 5 mps 729 mmHg 87%
    03:00 +8°C° 0 mm 5 mps 729 mmHg 89%
    04:00 +8°C° 0 mm 5 mps 729 mmHg 91%
    05:00 +8°C° 0 mm 5 mps 730 mmHg 93%
    06:00 +8°C° 0 mm 5 mps 730 mmHg 91%
    07:00 +8°C° 0 mm 5 mps 730 mmHg 90%
    08:00 +9°C° 0 mm 5 mps 731 mmHg 88%
    09:00 +10°C° 0 mm 5 mps 731 mmHg 80%
    10:00 +12°C° 0 mm 5 mps 731 mmHg 73%
    11:00 +13°C° 0 mm 5 mps 732 mmHg 65%
    12:00 +13°C° 0 mm 5 mps 731 mmHg 62%
    13:00 +13°C° 0 mm 5 mps 731 mmHg 58%
    14:00 +13°C° 0 mm 5 mps 730 mmHg 55%
    15:00 +13°C° 0 mm 5 mps 730 mmHg 55%
    16:00 +13°C° 0 mm 4 mps 731 mmHg 55%
    17:00 +12°C° 0 mm 3 mps 731 mmHg 55%
    18:00 +11°C° 0 mm 3 mps 731 mmHg 57%
    19:00 +11°C° 0 mm 3 mps 732 mmHg 60%
    20:00 +10°C° 0 mm 4 mps 732 mmHg 62%
    21:00 +9°C° 0 mm 3 mps 732 mmHg 64%
    22:00 +9°C° 0 mm 3 mps 733 mmHg 65%
    23:00 +8°C° 0 mm 3 mps 733 mmHg 67%

    23 July, Tuesday

    Time Temperature Precipitation Wind Pressure Humidity
    00:00 +7°C° 0 mm 3 mps 733 mmHg 70%
    01:00 +7°C° 0 mm 3 mps 733 mmHg 72%
    02:00 +6°C° 0 mm 2 mps 733 mmHg 75%
    03:00 +6°C° 0 mm 2 mps 733 mmHg 76%
    04:00 +6°C° 0 mm 2 mps 733 mmHg 78%
    05:00 +6°C° 0 mm 2 mps 734 mmHg 79%
    06:00 +5°C° 0 mm 3 mps 734 mmHg 77%
    07:00 +7°C° 0 mm 3 mps 735 mmHg 76%
    08:00 +7°C° 0 mm 3 mps 735 mmHg 74%
    09:00 +9°C° 0 mm 3 mps 735 mmHg 67%
    10:00 +11°C° 0 mm 3 mps 736 mmHg 61%
    11:00 +13°C° 0 mm 2 mps 736 mmHg 54%
    12:00 +15°C° 0 mm 2 mps 735 mmHg 52%
    13:00 +16°C° 0 mm 2 mps 735 mmHg 49%
    14:00 +17°C° 0 mm 2 mps 734 mmHg 47%
    15:00 +16°C° 0 mm 2 mps 735 mmHg 49%
    16:00 +16°C° 0 mm 2 mps 735 mmHg 50%
    17:00 +16°C° 0 mm 2 mps 735 mmHg 52%
    18:00 +15°C° 0 mm 2 mps 736 mmHg 55%
    19:00 +15°C° 0 mm 1 mps 736 mmHg 57%
    20:00 +14°C° 0 mm 1 mps 736 mmHg 59%
    21:00 +14°C° 0 mm 1 mps 737 mmHg 60%
    22:00 +14°C° 0 mm 1 mps 737 mmHg 60%
    23:00 +14°C° 0 mm 1 mps 737 mmHg 60%

    24 July, Wednesday

    Time Temperature Precipitation Wind Pressure Humidity
    00:00 +14°C° 0 mm 1 mps 737 mmHg 62%
    01:00 +13°C° 0 mm 1 mps 737 mmHg 64%
    02:00 +13°C° 0 mm 1 mps 737 mmHg 66%
    03:00 +12°C° 0 mm 1 mps 737 mmHg 68%
    04:00 +12°C° 0 mm 1 mps 737 mmHg 71%
    05:00 +11°C° 0 mm 1 mps 737 mmHg 73%
    06:00 +10°C° 0 mm 2 mps 737 mmHg 71%
    07:00 +12°C° 0 mm 2 mps 738 mmHg 69%
    08:00 +12°C° 0 mm 2 mps 738 mmHg 68%
    09:00 +14°C° 0 mm 2 mps 738 mmHg 62%
    10:00 +14°C° 0 mm 3 mps 738 mmHg 56%
    11:00 +16°C° 0 mm 3 mps 738 mmHg 51%
    12:00 +17°C° 0 mm 3 mps 737 mmHg 48%
    13:00 +18°C° 0 mm 4 mps 736 mmHg 45%
    14:00 +19°C° 0 mm 4 mps 736 mmHg 41%
    15:00 +18°C° 0 mm 3 mps 735 mmHg 43%
    16:00 +17°C° 0 mm 2 mps 735 mmHg 45%
    17:00 +18°C° 0 mm 1 mps 735 mmHg 47%
    18:00 +16°C° 0 mm 1 mps 736 mmHg 49%
    19:00 +15°C° 0 mm 1 mps 736 mmHg 52%
    20:00 +14°C° 0 mm 1 mps 736 mmHg 55%
    21:00 +14°C° 0 mm 1 mps 736 mmHg 54%
    22:00 +14°C° 0 mm 2 mps 736 mmHg 53%
    23:00 +13°C° 0 mm 2 mps 736 mmHg 53%

    25 July, Thursday

    Time Temperature Precipitation Wind Pressure Humidity
    00:00 +13°C° 0 mm 2 mps 736 mmHg 53%
    01:00 +13°C° 0 mm 2 mps 735 mmHg 54%
    02:00 +12°C° 0 mm 2 mps 735 mmHg 55%
    03:00 +12°C° 0 mm 2 mps 735 mmHg 56%
    04:00 +10°C° 0 mm 2 mps 735 mmHg 57%
    05:00 +10°C° 0 mm 2 mps 735 mmHg 57%
    06:00 +10°C° 0 mm 2 mps 735 mmHg 56%
    07:00 +12°C° 0 mm 2 mps 736 mmHg 54%
    08:00 +12°C° 0 mm 2 mps 736 mmHg 53%
    09:00 +14°C° 0 mm 2 mps 736 mmHg 47%
    10:00 +16°C° 0 mm 3 mps 736 mmHg 41%
    11:00 +18°C° 0 mm 3 mps 736 mmHg 35%
    12:00 +18°C° 0 mm 3 mps 735 mmHg 35%
    13:00 +19°C° 0 mm 3 mps 735 mmHg 34%
    14:00 +19°C° 0 mm 4 mps 734 mmHg 33%
    15:00 +18°C° 0 mm 3 mps 734 mmHg 36%
    16:00 +17°C° 0 mm 3 mps 734 mmHg 40%
    17:00 +17°C° 0 mm 2 mps 734 mmHg 44%
    18:00 +16°C° 0 mm 3 mps 735 mmHg 48%
    19:00 +14°C° 0 mm 3 mps 735 mmHg 52%
    20:00 +13°C° 0 mm 3 mps 735 mmHg 56%
    21:00 +13°C° 0 mm 3 mps 735 mmHg 60%
    22:00 +12°C° 0 mm 4 mps 735 mmHg 65%
    23:00 +12°C° 0 mm 4 mps 735 mmHg 69%
    Show more